Date String (YYYY-MM-DD hh:mm:ss) UTC,Instrument flags,Ambient pressure (hPa),Sample flow (lpm),Bypass flow (lpm),Sample temperature (°C),Ambient temperature (°C),ASC tube jacket temperature (°C),LED temperature (°C),Box temperature (°C),Sample RH (%),Span deviation,Mass concentration (μg/m³),Mass concentration (μg/m³),Mass concentration (μg/m³)
DateTimeUTC,F1_M11,P_M11,Q1_M11,Q2_M11,T1_M11,T2_M11,T3_M11,T4_M11,T5_M11,U1_M11,ZSPAN_M11,X0_M11,X2_M11,X1_M11
2022-09-10 12:00:00,,0831.7,5.00,0.00,28.5,26.8,00.0,37.2,30.3,25.2,0000.0,0006.08,0004.29,0004.16
2022-09-10 12:01:00,,0831.7,5.00,0.00,28.5,26.8,00.0,37.2,30.3,25.1,0000.0,0006.15,0004.28,0004.14
2022-09-10 12:02:00,,0831.7,5.00,0.00,28.5,26.8,00.0,37.2,30.3,25.1,0000.0,0006.14,0004.27,0004.12
2022-09-10 12:03:00,,0831.7,5.02,0.00,28.5,26.8,00.0,37.2,30.3,25.0,0000.0,0006.12,0004.25,0004.10
2022-09-10 12:04:00,,0831.7,5.00,0.00,28.5,26.8,00.0,37.2,30.3,25.0,0000.0,0006.01,0004.21,0004.07
2022-09-10 12:05:00,,0831.7,5.00,0.00,28.5,26.8,00.0,37.2,30.3,25.0,0000.0,0005.83,0004.17,0004.05
2022-09-10 12:06:00,,0831.7,5.00,0.00,28.5,26.8,00.0,37.2,30.3,25.0,0000.0,0005.76,0004.14,0004.03
2022-09-10 12:07:00,,0831.7,5.00,0.00,28.5,26.8,00.0,37.2,30.3,25.0,0000.0,0005.70,0004.12,0004.00
2022-09-10 12:08:00,,0831.7,5.00,0.00,28.5,26.8,00.0,37.2,30.3,25.0,0000.0,0005.55,0004.07,0003.96
2022-09-10 12:09:00,,0831.7,5.00,0.00,28.4,26.8,00.0,37.2,30.3,25.0,0000.0,0005.40,0004.01,0003.91
2022-09-10 12:10:00,,0831.7,5.00,0.00,28.4,26.8,00.0,37.2,30.3,25.0,0000.0,0005.31,0003.99,0003.89
2022-09-10 12:11:00,,0831.7,5.00,0.00,28.5,26.8,00.0,37.2,30.3,25.0,0000.0,0005.64,0003.99,0003.88
2022-09-10 12:12:00,,0831.7,5.00,0.00,28.4,26.8,00.0,37.2,30.3,25.0,0000.0,0005.58,0003.97,0003.87
2022-09-10 12:13:00,,0831.7,5.00,0.00,28.4,26.8,00.0,37.2,30.3,25.0,0000.0,0005.56,0003.96,0003.85
2022-09-10 12:14:00,,0831.7,5.00,0.00,28.4,26.8,00.0,37.2,30.3,25.0,0000.0,0005.59,0003.98,0003.87
2022-09-10 12:15:00,,0831.7,5.00,0.00,28.4,26.8,00.0,37.2,30.3,24.9,0000.0,0005.75,0004.04,0003.92
2022-09-10 12:16:00,,0831.7,5.00,0.00,28.4,26.8,00.0,37.2,30.3,24.9,0000.0,0005.83,0004.07,0003.95
2022-09-10 12:17:00,,0831.7,5.00,0.00,28.4,26.8,00.0,37.2,30.3,24.9,0000.0,0005.91,0004.11,0003.99
2022-09-10 12:18:00,,0831.7,5.00,0.00,28.4,26.8,00.0,37.2,30.3,24.9,0000.0,0005.92,0004.12,0004.00
2022-09-10 12:19:00,,0831.7,5.00,0.00,28.4,26.8,00.0,37.2,30.3,24.9,0000.0,0006.17,0004.17,0004.04
2022-09-10 12:20:00,,0831.7,5.00,0.00,28.4,26.8,00.0,37.2,30.3,25.0,0000.0,0006.54,0004.25,0004.09
2022-09-10 12:21:00,,0831.7,5.00,0.00,28.4,26.8,00.0,37.2,30.3,25.0,0000.0,0006.70,0004.30,0004.12
2022-09-10 12:22:00,,0831.8,5.00,0.00,28.4,26.8,00.0,37.2,30.3,24.9,0000.0,0006.35,0004.33,0004.15
2022-09-10 12:23:00,,0831.7,5.00,0.00,28.4,26.8,00.0,37.2,30.3,24.9,0000.0,0006.41,0004.37,0004.18
2022-09-10 12:24:00,,0831.7,5.00,0.00,28.4,26.8,00.0,37.2,30.3,24.9,0000.0,0006.51,0004.42,0004.22
2022-09-10 12:25:00,,0831.7,4.98,0.00,28.4,26.8,00.0,37.2,30.3,24.9,0000.0,0006.68,0004.45,0004.24
2022-09-10 12:26:00,,0831.7,4.99,0.00,28.4,26.8,00.0,37.2,30.3,24.9,0000.0,0006.71,0004.45,0004.24
2022-09-10 12:27:00,,0831.7,5.01,0.00,28.4,26.8,00.0,37.2,30.3,24.8,0000.0,0006.73,0004.45,0004.24
2022-09-10 12:28:00,,0831.7,5.00,0.00,28.4,26.8,00.0,37.2,30.3,24.8,0000.0,0006.81,0004.47,0004.25
2022-09-10 12:29:00,,0831.7,5.00,0.00,28.4,26.8,00.0,37.2,30.3,24.8,0000.0,0006.87,0004.50,0004.27
2022-09-10 12:30:00,,0831.7,5.00,0.00,28.4,26.8,00.0,37.2,30.2,24.8,0000.0,0006.82,0004.51,0004.29
2022-09-10 12:31:00,,0831.7,5.00,0.00,28.4,26.8,00.0,37.2,30.2,24.9,0000.0,0006.75,0004.51,0004.29
2022-09-10 12:32:00,,0831.6,5.00,0.00,28.4,26.8,00.0,37.2,30.2,25.0,0000.0,0006.78,0004.51,0004.31
2022-09-10 12:33:00,,0831.7,5.00,0.00,28.4,26.8,00.0,37.2,30.2,25.0,0000.0,0006.97,0004.54,0004.33
2022-09-10 12:34:00,,0831.7,5.00,0.00,28.4,26.8,00.0,37.2,30.2,25.0,0000.0,0007.62,0004.54,0004.34
2022-09-10 12:35:00,,0831.8,5.00,0.00,28.4,26.8,00.0,37.2,30.2,24.9,0000.0,0007.60,0004.54,0004.34
2022-09-10 12:36:00,,0831.7,5.00,0.00,28.4,26.8,00.0,37.1,30.2,25.0,0000.0,0007.51,0004.51,0004.34
2022-09-10 12:37:00,,0831.7,5.00,0.00,28.4,26.8,00.0,37.1,30.3,25.0,0000.0,0007.44,0004.49,0004.34
2022-09-10 12:38:00,,0831.7,5.00,0.00,28.4,26.8,00.0,37.1,30.2,25.0,0000.0,0007.71,0004.51,0004.35
2022-09-10 12:39:00,,0831.8,5.01,0.00,28.4,26.8,00.0,37.1,30.2,24.9,0000.0,0007.79,0004.52,0004.36
2022-09-10 12:40:00,,0831.8,5.00,0.00,28.4,26.8,00.0,37.1,30.3,24.9,0000.0,0007.83,0004.52,0004.35
2022-09-10 12:41:00,,0831.7,5.01,0.00,28.4,26.8,00.0,37.1,30.2,25.0,0000.0,0007.79,0004.50,0004.35
2022-09-10 12:42:00,,0831.8,4.99,0.00,28.4,26.8,00.0,37.1,30.2,26.2,0000.0,0007.67,0004.47,0004.34
2022-09-10 12:43:00,,0831.8,4.99,0.00,28.4,26.8,00.0,37.1,30.2,25.9,0000.0,0007.63,0004.46,0004.34
2022-09-10 12:44:00,,0831.8,5.01,0.00,28.4,26.8,00.0,37.1,30.2,25.3,0000.0,0007.67,0004.47,0004.33
2022-09-10 12:45:00,,0831.9,5.01,0.00,28.4,26.8,00.0,37.1,30.2,25.2,0000.0,0007.00,0004.47,0004.33
2022-09-10 12:46:00,,0832.0,5.00,0.00,28.4,26.8,00.0,37.1,30.3,25.2,0000.0,0006.97,0004.47,0004.33
2022-09-10 12:47:00,,0831.9,5.01,0.00,28.4,26.8,00.0,37.1,30.3,25.2,0000.0,0007.01,0004.49,0004.34
2022-09-10 12:48:00,,0832.0,4.98,0.00,28.4,26.8,00.0,37.1,30.2,25.1,0000.0,0007.00,0004.48,0004.32
2022-09-10 12:49:00,,0832.0,5.00,0.00,28.4,26.8,00.0,37.1,30.2,25.0,0000.0,0006.78,0004.47,0004.30
2022-09-10 12:50:00,,0831.9,5.00,0.00,28.4,26.8,00.0,37.1,30.2,25.1,0000.0,0006.45,0004.48,0004.29
2022-09-10 12:51:00,,0831.9,5.00,0.00,28.4,26.8,00.0,37.1,30.2,25.1,0000.0,0006.47,0004.48,0004.29
2022-09-10 12:52:00,,0832.0,5.01,0.00,28.4,26.8,00.0,37.1,30.2,25.0,0000.0,0006.41,0004.47,0004.29
2022-09-10 12:53:00,,0832.0,5.00,0.00,28.4,26.8,00.0,37.1,30.2,25.0,0000.0,0006.47,0004.48,0004.28
2022-09-10 12:54:00,,0832.0,5.00,0.00,28.4,26.8,00.0,37.1,30.2,25.0,0000.0,0006.46,0004.47,0004.26
2022-09-10 12:55:00,,0832.1,5.00,0.00,28.4,26.8,00.0,37.1,30.2,25.0,0000.0,0006.43,0004.45,0004.25
2022-09-10 12:56:00,,0832.0,5.00,0.00,28.4,26.8,00.0,37.1,30.2,25.0,0000.0,0006.36,0004.45,0004.25
2022-09-10 12:57:00,,0832.0,5.00,0.00,28.4,26.8,00.0,37.1,30.2,25.0,0000.0,0006.28,0004.43,0004.25
2022-09-10 12:58:00,,0831.9,5.00,0.00,28.4,26.8,00.0,37.1,30.3,25.0,0000.0,0006.29,0004.41,0004.22
2022-09-10 12:59:00,,0832.0,5.00,0.00,28.4,26.8,00.0,37.1,30.2,24.9,0000.0,0006.40,0004.42,0004.22
